Regional Weather Roundup
Issued by NWS

Home | Current Version | Previous Version | Graphics & Text | Print | Product List | Glossary On
Versions: 1 2 3 4 5 6 7 8 9 10 11 12 13 14 15 16 17 18 19 20 21 22 23 24 25 26 27 28
000
ASUS45 KTFX 311810
RWRMT
MONTANA REGIONAL WEATHER ROUNDUP
NATIONAL WEATHER SERVICE GREAT FALLS MT
1200 PM MDT WED AUG 31 2016

NOTE: "FAIR" INDICATES FEW OR NO CLOUDS BELOW 12000 FEET WITH NO
SIGNIFICANT WEATHER AND/OR OBSTRUCTIONS TO VISIBILITY.

MTZ001>007-043-311900-
WEST OF THE DIVIDE

CITY           SKY/WX    TMP DP  RH WIND       PRES   REMARKS
KALISPELL      PTSUNNY   74  50  42 NE3       29.95F
MISSOULA       CLOUDY    68  42  38 VRB3      29.99S
BUTTE          SUNNY     84  32  15 E8        30.09F
MULLAN PASS    CLOUDY    65  33  30 VRB5      30.10S
DEER LODGE       N/A     75  37  25 NE5       30.05F
EUREKA           N/A     73  48  40 W3        29.95F
HAMILTON         N/A     64  46  52 CALM      30.00F
LIBBY            N/A     73  46  38 W3        29.95F
RONAN            N/A     75  52  44 NW6       30.01S
$$

MTZ008-052>055-311900-
SOUTHWEST MONTANA

CITY           SKY/WX    TMP DP  RH WIND       PRES   REMARKS
BOZEMAN        SUNNY     81  41  24 VRB5      30.04F
DILLON         SUNNY     80  31  16 NE5       30.08F
W YELLOWSTONE  SUNNY     75  28  17 NE3       30.24F HAZE
ENNIS          SUNNY     86  23  10 S20G25    30.13F
THREE FORKS      N/A     78  78 100 CALM      30.02F
TWIN BRIDGES     N/A     77  34  21 S7        30.05
$$

MTZ009-010-012-014-046-048-049-054-311900-
EAST SLOPES AND CENTRAL MONTANA

CITY           SKY/WX    TMP DP  RH WIND       PRES   REMARKS
CUT BANK       PTSUNNY   75  51  43 S8        29.97S
GREAT FALLS    SUNNY     85  46  25 VRB3      29.96F
MALMSTROM AFB  SUNNY     83  49  30 NE6       29.95F
HELENA         SUNNY     78  42  27 CALM      29.99F
CHOTEAU          N/A     77  46  33 CALM      29.99F
CONRAD           N/A     77  53  43 SE6       29.99S
$$

MTZ011-013-016-021-045-047-050-051-311900-
NORTH CENTRAL MONTANA

CITY           SKY/WX    TMP DP  RH WIND       PRES   REMARKS
HAVRE          SUNNY     81  58  45 VRB3      29.93S
LEWISTOWN      SUNNY     90  46  21 CALM      30.00F
N BAR RANCH      N/A     90  41  18 S18       30.05F
CHINOOK          N/A     73  61  64 E10       29.92F
$$

MTZ017>020-022>027-061-062-311900-
NORTHEAST MONTANA

CITY           SKY/WX    TMP DP  RH WIND       PRES   REMARKS
GLASGOW        CLOUDY    80  56  43 SE14      29.98R
JORDAN           N/A     90  47  22 CALM      29.96F
SIDNEY         CLOUDY    88  60  38 SE14G20   30.04F
WOLF POINT     PTSUNNY   86  57  37 E13       29.98F
PLENTYWOOD       N/A     82  57  42 SE12G24   30.04F
POPLAR           N/A     82  57  42 E15G22    30.00F
$$

MTZ028>42-056>058-311900-
SOUTHCENTRAL AND SOUTHEAST MONTANA

CITY           SKY/WX    TMP DP  RH WIND       PRES   REMARKS
BAKER          SUNNY     85  55  35 S23G31    30.11F
BILLINGS       MOSUNNY   84  46  26 CALM      30.02F
LIVINGSTON     SUNNY     89  35  14 VRB7      30.05F
MILES CITY     SUNNY     91  46  21 S20G25    30.00F
FORSYTH          N/A     90  48  24 S12       29.98F
LAUREL           N/A     84  49  29 NE5       30.01F
ROUNDUP          N/A     87  46  23 SW8       29.92F
$$

REGIONAL REPORTS...DAKOTAS

CITY           SKY/WX    TMP DP  RH WIND       PRES   REMARKS
WILLISTON      SUNNY     86  59  39 SE15G23   30.07F
MINOT          CLOUDY    77  59  53 E20       30.18S
DICKINSON      SUNNY     85  57  38 S22G29    30.11F
CROSBY           N/A     81  61  50 SE22G29   30.13S
WATFORD CITY     N/A     82  59  44 SE20      30.10S
BISMARCK       CLOUDY    76  57  51 SE15G24   30.21F
GRAND FORKS    MOSUNNY   73  52  47 NE5       30.26F
FARGO          SUNNY     77  51  40 N8        30.23F
BUFFALO SD       N/A     86  55  34 SE18      30.09F
RAPID CITY     SUNNY     80  60  50 S20G25    30.22R
$$

REGIONAL REPORTS...WYOMING/IDAHO/WASHINGTON

CITY           SKY/WX    TMP DP  RH WIND       PRES   REMARKS
GILLETTE       SUNNY     83  45  26 S20G29    30.17S
SHERIDAN       SUNNY     90  41  18 SE22G29   30.05F
BUFFALO WY     SUNNY     86  39  19 S20G30    30.16F
CODY           SUNNY     84  34  16 E8        30.13F
YELLOWSTONE LA   N/A     73  28  18 VRB5      30.36F
IDAHO FALLS    SUNNY     86  35  16 SW8       30.08S
SALMON         MOSUNNY   72  43  35 CALM      30.02R
BOISE          CLOUDY    79  38  22 SE8       29.93F
SPOKANE        CLOUDY    69  39  33 S6        29.96S
$$

REGIONAL REPORTS...ALBERTA

CITY           SKY/WX    TMP DP  RH WIND       PRES   REMARKS
EDMONTON         N/A     70  57  64 SE5       29.92F
CALGARY        PTSUNNY   73  54  49 VRB3      29.95F
LETHBRIDGE     PTSUNNY   77  52  41 S13G31    29.92F
MEDICINE HAT   PTSUNNY   79  61  53 N3        29.91S
WATERTON GATE    N/A     77  46  33 NE5         N/A
CARDSTON         N/A     77  46  33 NW5         N/A
MILK RIVER       N/A     81  52  36 S14         N/A
$$

REGIONAL REPORTS...SASKATCHEWAN

CITY           SKY/WX    TMP DP  RH WIND       PRES   REMARKS
SWIFT CURRENT  MOSUNNY   70  57  64 SE18G30   29.99F
REGINA         CLOUDY    75  55  50 SE23G37   30.11F
SASKATOON      PTSUNNY   70  52  52 SE18G25   30.12F
CYPRESS HILLS    N/A     72  55  56 S10G18      N/A
ASSINIBOIA       N/A     68  55  64 SE9         N/A
$$




USA.gov is the U.S. government's official web portal to all federal, state and local government web resources and services.